Weather History for FAGG - November, 2011

Change the Weather History Date:

Monday, November 28, 2011

  Actual Average Record
Temperature  
Mean Temperature 62 °F -  
Max Temperature 68 °F 72 °F 80 °F (1996)
Min Temperature 55 °F 57 °F 46 °F (2007)
Degree Days  
Heating Degree Days 4    
Growing Degree Days 12 (Base 50)    
Moisture  
Dew Point 57 °F    
Average Humidity 86    
Maximum Humidity 100    
Minimum Humidity 60    
Precipitation  
Precipitation 0.00 in - - ()
Sea Level Pressure  
Sea Level Pressure 30.15 in    
Wind  
Wind Speed 5 mph ()    
Max Wind Speed 18 mph    
Max Gust Speed -    
Visibility 6.4 miles    
Events Rain    
Averages and records for this station are not official NWS values.
T = Trace of Precipitation, MM = Missing Value Source: Averaged Metar Reports

Daily Weather History Graph

Daily Weather History Graph

Search for Another Location

Airport or City:

Trip Planner

Search our weather history database for the weather conditions in past years. The results will help you decide how hot, cold, wet, or windy it might be!

Date:

Astronomy

Nov. 28, 2011 Rise Set
Actual Time 5:12 AM SAST 7:23 PM SAST
Civil Twilight 4:44 AM SAST 7:52 PM SAST
Nautical Twilight 4:09 AM SAST 8:27 PM SAST
Astronomical Twilight 3:32 AM SAST 9:04 PM SAST
Moon 8:15 AM SAST (11/28) 10:32 PM SAST (11/28)
Length of Visible Light 15h 07m
Length of Day
14h 11m
Waxing Crescent, 13% of the Moon is Illuminated
Nov 28
Waxing Crescent
Dec 2
First Quarter
Dec 10
Full
Dec 18
Last Quarter
Dec 24
New

Hourly Weather History & Observations

Time (SAST) Temp. Dew Point Humidity Pressure Visibility Wind Dir Wind Speed Gust Speed Precip Events Conditions
12:00 AM 57.2 °F 57.2 °F 100% 30.24 in 6.2 mi Calm Calm - N/A   Mostly Cloudy
1:00 AM 57.2 °F 57.2 °F 100% 30.21 in 5.6 mi ESE 3.5 mph - N/A   Overcast
2:00 AM 56 °F 56 °F 100% 30.22 in 3 mi 1.2 mph - -  
2:00 AM 57.2 °F 55.4 °F 94% 30.21 in - Calm Calm - N/A   Heavy Drizzle
3:00 AM 55.4 °F 55.4 °F 100% 30.21 in 2.2 mi Variable 1.2 mph - N/A Rain Light Rain
4:00 AM 55.4 °F 55.4 °F 100% 30.21 in 1.7 mi Variable 2.3 mph - N/A   Drizzle
4:05 AM 55.4 °F 55.4 °F 100% 30.21 in - Variable 2.3 mph - N/A   Drizzle
4:34 AM 55.4 °F 55.4 °F 100% 30.21 in 6.2 mi Variable 2.3 mph - N/A   Mostly Cloudy
5:00 AM 56 °F 56 °F 100% 30.22 in 4 mi NNE 3.5 mph - - Rain Light Drizzle
5:00 AM 55.4 °F 55.4 °F 100% 30.21 in 3.7 mi NNE 2.3 mph - N/A   Light Drizzle
5:24 AM 55.4 °F 55.4 °F 100% 30.21 in 6.2 mi North 2.3 mph - N/A   Scattered Clouds
6:00 AM 55.4 °F 55.4 °F 100% 30.21 in 6.2 mi NNW 2.3 mph - N/A   Scattered Clouds
7:00 AM 60.8 °F 55.4 °F 82% 30.21 in 6.2 mi SE 4.6 mph - N/A   Partly Cloudy
7:12 AM 60.8 °F 55.4 °F 82% 30.21 in 6.2 mi SE 4.6 mph - N/A   Mostly Cloudy
8:00 AM 62.6 °F 57.2 °F 82% 30.18 in 6.2 mi East 8.1 mph - N/A   Partly Cloudy
9:00 AM 66.2 °F 57.2 °F 73% 30.18 in 6.2 mi ESE 8.1 mph - N/A   Partly Cloudy
10:00 AM 68.0 °F 55.4 °F 64% 30.18 in 6.2 mi East 9.2 mph - N/A   Partly Cloudy
11:00 AM 67 °F 57 °F 61% 30.17 in 19 mi SE 12.7 mph - -   Scattered Clouds
11:00 AM 68.0 °F 57.2 °F 68% 30.15 in 6.2 mi SE 12.7 mph - N/A   Partly Cloudy
12:00 PM 66.2 °F 57.2 °F 73% 30.15 in 6.2 mi SE 13.8 mph - N/A   Partly Cloudy
1:00 PM 68.0 °F 57.2 °F 68% 30.12 in 6.2 mi ESE 13.8 mph - N/A   Partly Cloudy
2:00 PM 68 °F 57 °F 60% 30.12 in 12 mi East 13.8 mph - -   Scattered Clouds
2:00 PM 68.0 °F 57.2 °F 68% 30.12 in 6.2 mi East 13.8 mph - N/A   Partly Cloudy
3:00 PM 68.0 °F 59.0 °F 73% 30.06 in 6.2 mi ESE 17.3 mph - N/A   Partly Cloudy
4:00 PM 66.2 °F 60.8 °F 83% 30.06 in 6.2 mi ESE 18.4 mph - N/A   Partly Cloudy
5:00 PM 68 °F 61 °F 71% 30.05 in 12 mi ESE 16.1 mph - -   Scattered Clouds
5:00 PM 68.0 °F 60.8 °F 78% 30.04 in 6.2 mi East 16.1 mph - N/A   Partly Cloudy
6:00 PM 66.2 °F 60.8 °F 83% 30.04 in 6.2 mi ESE 17.3 mph - N/A   Partly Cloudy
7:00 PM 64.4 °F 60.8 °F 88% 30.04 in 6.2 mi East 12.7 mph - N/A   Partly Cloudy
8:00 PM 62.6 °F 60.8 °F 94% 30.04 in 6.2 mi ESE 11.5 mph - N/A   Partly Cloudy
9:00 PM 62.6 °F 59.0 °F 88% 30.04 in - East 8.1 mph - N/A   Clear
10:00 PM 60.8 °F 59.0 °F 94% 30.04 in - ENE 4.6 mph - N/A   Clear
11:00 PM 59.0 °F 59.0 °F 100% 30.04 in 4.3 mi NW 3.5 mph - N/A   Unknown